"Pseudo-MPEC" for P11dgUr

Created 2021 Feb 24 5:07:16 UT using Find_Orb

Click here for an explanation of pseudo-MPECs

 
 Astrometry: 
     P11dgUr  C2021 02 12*H1!vD+8AWlU@M14Z^da^AstrometryxQ)r_F=_2^D4IEeG+#hboF51
     P11dgUr  C2021 02 12w(vbpredacted;WFZr+Y#4Q4H!G`E[cEdP$,lM*OJlE[m-clickxF51
     P11dgUr  C2021 02 129dfD!F'-M7Jr85AHihere%wmrC(efor#5=S):Y*`aexplanationF51

Station data:
(F51) Pan-STARRS 1, Haleakala  (N20.707235 W156.255910)  US/Hawaii.
   Observers N. Primak, A. Schultz, S. Watters, J. Thiel, T. Goggia. Measurer
   PS1 Science Consortium. 1.8-m Ritchey-Chrétien + CCD.

Orbital elements:  P11dgUr
   Perihelion 2022 Mar 14.579792 +/- 262.016 TT = 13:54:54 (JD 2459653.079792)
Epoch 2021 Feb 13.0 TT = JDT 2459258.5   Earth MOID: 0.6592   AutoNEOCP
M 200.13743788 +/- 125.41642        (J2000 ecliptic)
n   0.40514634 +/- 0.242629         Peri.  209.42064 +/- 77.771796
a   1.80881754 +/- 0.722148         Node    99.09158 +/- 45.479279
e   0.0801889 +/- 0.264717          Incl.   22.08477 +/- 30.586175
P   2.43/888.55d           H 20.5   G  0.15   U 11.8  SR
q 1.66377039 +/- 0.858636    Q 1.95386470 +/- 34.0177
From 3 observations 2021 Feb. 12 (28.0 min); mean residual 0".04
Residuals in arcseconds: 
210212 F51  .03-  .03-    210212 F51  .06+  .06+    210212 F51  .03-  .03-    

Ephemerides (geocentric):
Date (UTC) HH   RA              Dec         delta   r     elong  mag " sig PA
---- -- -- --  -------------   -----------  ------ ------ -----  --- ---- ---
2021 02 24 05  10 18 54.148   +45 31 27.39  1.0533 1.9424 143.9 23.0  28d 147
2021 02 24 06  10 18 50.704   +45 31 56.20  1.0534 1.9424 143.9 23.0  28d 147
2021 02 24 07  10 18 47.260   +45 32 24.93  1.0535 1.9424 143.8 23.0  28d 147
2021 02 24 08  10 18 43.816   +45 32 53.60  1.0537 1.9424 143.8 23.0  28d 147
2021 02 24 09  10 18 40.373   +45 33 22.20  1.0538 1.9424 143.8 23.0  28d 147
2021 02 24 10  10 18 36.930   +45 33 50.74  1.0539 1.9424 143.8 23.0  28d 146
2021 02 24 11  10 18 33.488   +45 34 19.22  1.0541 1.9424 143.7 23.0  28d 146
2021 02 24 12  10 18 30.045   +45 34 47.62  1.0542 1.9423 143.7 23.0  28d 146
2021 02 24 13  10 18 26.604   +45 35 15.96  1.0543 1.9423 143.7 23.0  28d 146
2021 02 24 14  10 18 23.162   +45 35 44.24  1.0544 1.9423 143.7 23.0  28d 146
2021 02 24 15  10 18 19.721   +45 36 12.45  1.0546 1.9423 143.6 23.0  28d 146
2021 02 24 16  10 18 16.280   +45 36 40.59  1.0547 1.9423 143.6 23.0  28d 146
2021 02 24 17  10 18 12.839   +45 37 08.67  1.0548 1.9423 143.6 23.0  28d 146
2021 02 24 18  10 18 09.399   +45 37 36.68  1.0550 1.9422 143.5 23.0  28d 146
2021 02 24 19  10 18 05.959   +45 38 04.63  1.0551 1.9422 143.5 23.0  28d 146
2021 02 24 20  10 18 02.520   +45 38 32.51  1.0552 1.9422 143.5 23.0  28d 146
2021 02 24 21  10 17 59.081   +45 39 00.32  1.0554 1.9422 143.5 23.0  28d 146
2021 02 24 22  10 17 55.643   +45 39 28.07  1.0555 1.9422 143.4 23.0  28d 146
2021 02 24 23  10 17 52.205   +45 39 55.76  1.0556 1.9422 143.4 23.0  28d 146
2021 02 25 00  10 17 48.767   +45 40 23.37  1.0558 1.9421 143.4 23.0  28d 146
2021 02 25 01  10 17 45.330   +45 40 50.92  1.0559 1.9421 143.4 23.0  28d 146
2021 02 25 02  10 17 41.894   +45 41 18.41  1.0560 1.9421 143.3 23.0  28d 146
2021 02 25 03  10 17 38.458   +45 41 45.83  1.0562 1.9421 143.3 23.0  28d 146
2021 02 25 04  10 17 35.022   +45 42 13.18  1.0563 1.9421 143.3 23.0  28d 146
2021 02 25 05  10 17 31.587   +45 42 40.47  1.0564 1.9421 143.3 23.0  28d 146
2021 02 25 06  10 17 28.153   +45 43 07.69  1.0566 1.9421 143.2 23.0  28d 146
2021 02 25 07  10 17 24.719   +45 43 34.85  1.0567 1.9420 143.2 23.0  28d 146
2021 02 25 08  10 17 21.285   +45 44 01.94  1.0568 1.9420 143.2 23.0  28d 145
2021 02 25 09  10 17 17.852   +45 44 28.96  1.0570 1.9420 143.1 23.0  28d 145
2021 02 25 10  10 17 14.420   +45 44 55.92  1.0571 1.9420 143.1 23.0  28d 145
2021 02 25 11  10 17 10.988   +45 45 22.81  1.0572 1.9420 143.1 23.0  28d 145
2021 02 25 12  10 17 07.557   +45 45 49.63  1.0574 1.9420 143.1 23.0  28d 145
2021 02 25 13  10 17 04.127   +45 46 16.39  1.0575 1.9419 143.0 23.0  28d 145
2021 02 25 14  10 17 00.697   +45 46 43.09  1.0576 1.9419 143.0 23.0  28d 145
2021 02 25 15  10 16 57.268   +45 47 09.71  1.0578 1.9419 143.0 23.0  28d 145
2021 02 25 16  10 16 53.839   +45 47 36.28  1.0579 1.9419 143.0 23.0  28d 145
2021 02 25 17  10 16 50.411   +45 48 02.77  1.0581 1.9419 142.9 23.0  28d 145
2021 02 25 18  10 16 46.984   +45 48 29.20  1.0582 1.9419 142.9 23.0  28d 145
2021 02 25 19  10 16 43.557   +45 48 55.56  1.0583 1.9418 142.9 23.0  28d 145
2021 02 25 20  10 16 40.132   +45 49 21.86  1.0585 1.9418 142.8 23.0  28d 145
2021 02 25 21  10 16 36.706   +45 49 48.09  1.0586 1.9418 142.8 23.0  28d 145
2021 02 25 22  10 16 33.282   +45 50 14.26  1.0588 1.9418 142.8 23.0  28d 145
2021 02 25 23  10 16 29.858   +45 50 40.35  1.0589 1.9418 142.8 23.0  28d 145
2021 02 26 00  10 16 26.435   +45 51 06.39  1.0590 1.9418 142.7 23.0  28d 145
2021 02 26 01  10 16 23.013   +45 51 32.35  1.0592 1.9418 142.7 23.0  28d 145
2021 02 26 02  10 16 19.591   +45 51 58.25  1.0593 1.9417 142.7 23.0  28d 145
2021 02 26 03  10 16 16.171   +45 52 24.09  1.0595 1.9417 142.6 23.0  29d 145
2021 02 26 04  10 16 12.751   +45 52 49.85  1.0596 1.9417 142.6 23.0  29d 145